EW7164 Weather Reports


time (UTC)temp
C
wind
direction
speed
KPH
gust
KPH
rain 1hr
cm
rain 24hr
cm
rain mn
cm
humidity
%
barometer
mb
20260904145815 16 315 8.0 12.9 0.00 1.09 0.03 97 1010.0
20260904144813 16 305 9.7 16.1 0.00 1.22 0.03 97 1010.0
20260904142815 16 288 4.8 6.4 0.00 1.40 0.03 96 1010.2
20260904140817 16 317 8.0 11.3 0.00 1.55 0.03 96 1010.1
20260904140715 16 319 6.4 12.9 0.00 1.55 0.03 97 1010.2
20260904135715 16 329 8.0 11.3 0.00 1.80 0.03 96 1010.3
20260904135614 16 336 6.4 9.7 0.00 1.83 0.03 97 1010.4
20260904134614 16 329 8.0 9.7 0.00 2.06 0.03 96 1010.5
20260904133617 15 315 6.4 8.0 0.00 2.29 0.03 97 1010.6
20260904132617 15 315 9.7 14.5 0.00 2.39 0.03 97 1010.5
20260904131614 15 315 6.4 8.0 0.00 2.57 0.03 97 1010.5
20260904130617 15 316 6.4 8.0 0.00 2.62 0.03 97 1010.4
20260904125713 15 312 6.4 11.3 0.00 2.64 0.03 97 1010.5
20260904125614 15 333 4.8 9.7 0.00 2.64 0.03 96 1010.5
20260904124714 15 348 8.0 11.3 0.00 2.69 0.03 97 1010.6
20260904123715 15 360 8.0 11.3 0.00 2.74 0.03 97 1010.5
20260904122716 15 326 4.8 9.7 0.00 2.82 0.03 96 1010.5
20260904121715 15 332 8.0 12.9 0.00 2.97 0.03 97 1010.6
20260904121615 15 348 8.0 11.3 0.00 2.97 0.03 97 1010.6
20260904120615 15 339 4.8 6.4 0.03 3.05 0.03 97 1010.7
20260904115616 15 320 11.3 16.1 0.03 3.07 0.03 97 1010.6
20260904115515 15 312 12.9 17.7 0.03 3.10 0.03 97 1010.7
20260904113516 15 316 11.3 17.7 0.03 3.12 0.03 96 1010.4
20260904112516 15 318 6.4 9.7 0.03 3.15 0.03 97 1010.2
20260904111514 15 320 12.9 16.1 0.03 3.15 0.00 96 1010.4
20260904111415 15 319 11.3 17.7 0.00 3.12 0.00 97 1010.4
20260904110414 15 321 9.7 14.5 0.00 3.12 0.00 96 1010.3
20260904105414 15 315 9.7 11.3 0.00 3.15 0.00 98 1010.2
20260904104416 15 315 6.4 9.7 0.00 3.15 0.00 96 1010.1
20260904103514 15 313 6.4 8.0 0.00 3.17 0.00 97 1010.2
20260904102613 15 315 6.4 11.3 0.00 3.17 0.00 97 1010.0
20260904101614 15 315 8.0 12.9 0.00 3.17 0.00 97 1010.0
20260904100613 15 315 11.3 14.5 0.00 3.17 0.00 97 1010.0
20260904100514 15 315 8.0 11.3 0.00 3.17 0.00 97 1010.0
20260904095515 15 307 11.3 19.3 0.00 3.17 0.00 97 1010.0
20260904094515 15 285 12.9 16.1 0.00 3.17 0.00 96 1010.0
20260904093614 15 306 11.3 14.5 0.00 3.17 0.00 96 1010.0
20260904092613 15 289 9.7 11.3 0.00 3.17 0.00 97 1009.9
20260904092517 15 305 8.0 11.3 0.00 3.17 0.00 97 1009.9
20260904091615 15 313 9.7 14.5 0.00 3.17 0.00 97 1010.0
20260904090616 15 298 12.9 16.1 0.00 3.17 0.00 97 1010.0
20260904090514 15 302 9.7 12.9 0.00 3.17 0.00 97 1010.0
20260904085518 15 282 12.9 14.5 0.00 3.17 0.00 97 1010.0
20260904084614 15 279 4.8 8.0 0.00 3.17 0.00 96 1010.0
20260904084515 15 308 8.0 9.7 0.00 3.17 0.00 97 1010.0
20260904084413 15 292 8.0 12.9 0.00 3.17 0.00 97 1010.0
20260904083415 15 310 6.4 9.7 0.00 3.17 0.00 96 1010.0
20260904082417 15 278 8.0 9.7 0.00 3.17 0.00 96 1010.0
20260904081415 15 303 8.0 11.3 0.00 3.17 0.00 97 1010.0
20260904080416 15 279 9.7 12.9 0.00 3.17 0.00 97 1010.1
20260904075436 15 292 9.7 14.5 0.00 3.17 0.00 96 1009.9
20260904074437 15 283 8.0 11.3 0.00 3.17 0.00 97 1010.2
20260904073534 15 290 6.4 11.3 0.00 3.17 0.00 97 1010.4
20260904073436 15 288 11.3 14.5 0.00 3.17 0.00 96 1010.4
20260904071436 15 270 6.4 8.0 0.00 3.17 0.00 97 1010.2
20260904070437 15 292 4.8 6.4 0.00 3.17 0.00 96 1010.1
20260904065536 15 294 9.7 11.3 0.00 3.17 0.00 97 1010.4
20260904064536 15 292 4.8 6.4 0.00 3.17 0.00 97 1010.4
20260904063536 15 272 6.4 6.4 0.00 3.17 0.00 97 1010.7
20260904063434 15 273 8.0 11.3 0.00 3.17 0.00 96 1010.7
20260904062436 15 293 8.0 9.7 0.00 3.17 0.00 97 1010.8
20260904062337 15 271 6.4 11.3 0.00 3.17 0.00 97 1010.8
20260904061435 15 270 4.8 8.0 0.00 3.17 0.00 97 1010.9
20260904060438 15 292 8.0 11.3 0.00 3.17 0.00 97 1011.0
20260904055437 15 315 6.4 6.4 0.00 3.17 0.00 96 1010.7
20260904054437 15 292 6.4 6.4 0.00 3.17 0.00 96 1011.0
20260904053534 15 292 8.0 9.7 0.00 3.17 0.00 97 1011.0
20260904051536 15 315 8.0 9.7 0.00 3.17 0.00 97 1011.2
20260904050635 15 315 8.0 11.3 0.00 3.17 0.00 96 1011.4
20260904045636 15 315 6.4 9.7 0.00 3.17 0.00 97 1011.5
20260904043634 15 315 6.4 8.0 0.00 3.17 0.00 97 1011.8
20260904042635 15 315 4.8 6.4 0.00 3.17 0.00 96 1012.0
20260904041635 15 315 6.4 9.7 0.00 3.17 0.00 97 1011.9
20260904040637 15 315 3.2 8.0 0.00 3.17 0.00 97 1011.8
20260904035645 15 319 3.2 8.0 0.00 3.17 3.17 97 1011.9
20260904033647 15 360 4.8 6.4 0.00 3.17 3.17 95 1012.3
20260904032745 15 315 3.2 4.8 0.00 3.17 3.17 96 1012.5
20260904030846 15 90 0.0 0.0 0.03 3.17 3.17 96 1012.4
20260904024846 15 90 0.0 1.6 0.03 3.17 3.17 96 1012.2
20260904023944 15 90 3.2 4.8 0.03 3.17 3.17 96 1012.3
20260904022946 15 90 0.0 0.0 0.05 3.17 3.17 96 1012.3
20260904022046 15 90 0.0 1.6 0.03 3.15 3.15 96 1012.3
20260904020146 15 90 4.8 4.8 0.03 3.15 3.15 95 1012.7
20260904015244 15 102 4.8 6.4 0.03 3.15 3.15 95 1012.9
20260904014247 15 96 6.4 8.0 0.05 3.15 3.15 96 1013.1
20260904012347 15 94 8.0 11.3 0.03 3.12 3.12 96 1013.1
20260904011345 15 90 8.0 9.7 0.03 3.12 3.12 95 1013.0
20260904010345 15 90 6.4 9.7 0.05 3.12 3.12 96 1013.3
20260904010244 15 90 6.4 9.7 0.05 3.12 3.12 96 1013.2
20260904005247 15 90 6.4 9.7 0.05 3.12 3.12 95 1013.2
20260904004249 15 90 6.4 8.0 0.05 3.10 3.10 96 1013.3
20260904003345 15 100 6.4 11.3 0.05 3.10 3.10 96 1013.4
20260904002347 15 101 4.8 9.7 0.08 3.10 3.10 96 1013.3
20260903235347 15 132 3.2 4.8 0.08 3.07 3.07 96 1013.3
20260903234345 15 117 3.2 4.8 0.08 3.05 3.05 96 1013.4
20260903233345 15 90 3.2 6.4 0.08 3.05 3.05 96 1013.6
20260903232346 15 135 1.6 4.8 0.08 3.02 3.02 96 1013.6
20260903231347 15 130 6.4 9.7 0.08 3.02 3.02 95 1013.6
20260903231245 15 99 4.8 8.0 0.08 3.02 3.02 95 1013.6
20260903225345 15 141 4.8 11.3 0.10 3.00 3.00 95 1013.9
20260903222348 16 117 4.8 9.7 0.10 2.92 2.92 94 1014.0
20260903222247 16 135 0.0 4.8 0.10 2.92 2.92 95 1014.0
20260903221246 16 151 4.8 14.5 0.13 2.92 2.92 95 1014.0
20260903220245 16 162 6.4 12.9 0.10 2.92 2.92 95 1014.0
20260903220146 16 151 4.8 8.0 0.10 2.92 2.92 95 1013.9
20260903214147 16 177 6.4 12.9 0.08 2.87 2.87 95 1014.2
20260903212247 16 173 8.0 17.7 0.10 2.84 2.84 94 1014.2
20260903211245 16 189 6.4 11.3 0.10 2.82 2.82 95 1014.3
20260903210248 16 182 1.6 8.0 0.10 2.82 2.82 94 1014.4
20260903205346 16 132 4.8 11.3 0.08 2.79 2.79 95 1014.5
20260903204345 16 138 6.4 16.1 0.10 2.79 2.79 95 1014.6
20260903203345 16 172 9.7 17.7 0.08 2.77 2.77 95 1014.7
20260903195448 16 109 3.2 8.0 0.10 2.72 2.72 95 1015.0
20260903194445 16 124 6.4 9.7 0.10 2.69 2.69 94 1015.1
20260903193448 16 127 3.2 6.4 0.13 2.69 2.69 95 1015.5
20260903192449 16 93 4.8 8.0 0.13 2.67 2.67 94 1015.5
20260903191447 16 112 1.6 4.8 0.10 2.64 2.64 94 1015.7
20260903190446 16 101 4.8 9.7 0.10 2.64 2.64 94 1015.8
20260903185346 16 131 3.2 6.4 0.08 2.62 2.59 93 1015.8
20260903184346 16 130 3.2 3.2 0.05 2.59 2.59 93 1015.9
20260903183445 16 135 4.8 9.7 0.05 2.57 2.57 93 1016.1
20260903183346 16 119 6.4 8.0 0.05 2.57 2.54 93 1016.0
20260903180545 17 176 3.2 8.0 0.03 2.54 2.54 93 1016.2
20260903175546 17 138 4.8 8.0 0.03 2.54 2.54 93 1016.3
20260903174545 17 187 3.2 4.8 0.03 2.54 2.54 93 1016.4
20260903173644 17 184 4.8 6.4 0.00 2.51 2.51 92 1016.5
20260903172646 17 225 1.6 4.8 0.03 2.51 2.51 94 1016.7
20260903171744 17 229 0.0 4.8 0.05 2.51 2.51 94 1016.9
20260903171648 17 225 1.6 3.2 0.05 2.51 2.51 93 1016.9
20260903170744 16 138 0.0 4.8 0.05 2.51 2.51 95 1016.9
20260903165647 16 92 4.8 6.4 0.08 2.51 2.51 94 1016.9
20260903164646 16 93 3.2 6.4 0.10 2.51 2.51 95 1017.0
20260903163743 16 32 1.6 4.8 0.15 2.51 2.51 95 1017.2
20260903162747 16 317 0.0 1.6 0.13 2.49 2.49 93 1017.3
20260903161746 16 276 9.7 12.9 0.20 2.46 2.46 95 1017.3
20260903160744 16 245 6.4 8.0 0.25 2.46 2.46 95 1017.4
20260903154746 16 189 6.4 11.3 0.43 2.41 2.41 96 1017.6
20260903153748 16 192 11.3 16.1 0.46 2.36 2.36 96 1017.6
20260903151745 16 200 8.0 22.5 0.53 2.26 2.26 94 1017.8
20260903150745 16 139 6.4 12.9 0.56 2.21 2.21 95 1017.9